Home   Weather   Conakry   Past weeks

Flag for Guinea Past Weather in Conakry, Guinea — Yesterday and Last 2 Weeks

Now
82 °F

Haze.


Feels Like: 86 °F
Forecast: N/A
Wind: 9 mph from Northwest

Location: Conakry / Gbessia

Current Time: Jan 19, 2017 at 7:40:19 pm

Latest Report: Jan 19, 2017 at 7:00 pm


Visibility: 3 mi

Pressure: 29.80 "Hg

Humidity: 66%

Dew Point: 70 °F

Location of ConakryLocation

Past Weather in Conakry — Graph

°F

Conakry Temperature Yesterday

Maximum temperature yesterday: 88 °F (at 12:00 pm)
Minimum temperature yesterday: 77 °F (at 4:00 am)
Average temperature yesterday: 82 °F

High & Low Weather Summary for the Past Weeks

 TemperatureHumidityPressure
High91 °F (Jan 16, 3:00 pm)100% (Jan 6, 6:00 am)29.92 "Hg (Jan 6, 6:00 am)
Low72 °F (Jan 6, 6:00 am)29% (Jan 14, 4:00 pm)29.71 "Hg (Jan 14, 4:00 pm)
Average81 °F71%29.83 "Hg
* Reported Jan 4 6:00 pm — Jan 19 6:00 pm, Conakry, Weather by CustomWeather, © 2017

Note: Actual official high and low records may vary slightly from our data, if they occured in-between our weather recording intervals... More about our weather records

Advertising

Conakry Weather History for the Previous 24 Hours

Scroll right to see more
 ConditionsComfort  
Time TempWeatherWind HumidityBarometerVisibility
6:00 pm
Thu, Jan 19
84 °FSunny.9 mph62%29.80 "Hg10 mi
5:00 pm88 °FSunny.12 mph52%29.80 "Hg10 mi
4:00 pm88 °FSunny.12 mph52%29.77 "Hg10 mi
3:00 pm91 °FSunny.12 mph46%29.77 "Hg10 mi
2:00 pm90 °FSunny.9 mph46%29.80 "Hg10 mi
1:00 pm90 °FSunny.9 mph38%29.83 "Hg10 mi
12:00 pm86 °FSunny.7 mph40%29.86 "Hg10 mi
11:00 am84 °FSunny.7 mph74%29.89 "Hg10 mi
10:00 am81 °FSunny.9 mph54%29.92 "Hg10 mi
9:00 am79 °FSunny.9 mph70%29.89 "Hg10 mi
8:00 am77 °FSunny.9 mph79%29.86 "Hg10 mi
7:00 am77 °FClear.No wind79%29.86 "Hg10 mi
6:00 am77 °FClear.12 mph69%29.83 "Hg10 mi
5:00 am77 °FClear.12 mph69%29.83 "Hg10 mi
4:00 am77 °FClear.7 mph83%29.83 "Hg10 mi
3:00 am77 °FClear.No wind83%29.83 "Hg10 mi
2:00 am77 °FClear.No wind83%29.86 "Hg10 mi
1:00 am79 °FClear.5 mph84%29.86 "Hg10 mi
12:00 am79 °FClear.No wind74%29.86 "Hg10 mi
11:00 pm
Wed, Jan 18
81 °FClear.2 mph74%29.89 "Hg10 mi
10:00 pm81 °FClear.7 mph84%29.89 "Hg10 mi
9:00 pm81 °FClear.9 mph79%29.86 "Hg10 mi
8:00 pm81 °FClear.7 mph74%29.83 "Hg10 mi
7:00 pm82 °FClear.9 mph70%29.80 "Hg10 mi
Weather by CustomWeather, © 2017

See weather overviewHow to use our weather pages